�N����,����,�~����,�C��,���x,�C��,����,���ϕ���,�ő�u�ԕ���,�ő厞����,���˗�,�I�_���x,�n�����x,�ő啗���N��,DTYPE
"17/06/15","00:10",0.0,15.9,70.6,1002.6,279.6,1.0,1.2,285.6,0.00,10.6,19.8,"00:01:20",1
"17/06/15","00:20",0.0,15.8,71.1,1002.9,296.3,1.2,1.9,327.5,0.00,10.6,19.8,"00:17:52",1
"17/06/15","00:30",0.0,15.8,71.2,1002.4,299.3,1.1,1.4,333.0,0.00,10.6,19.7,"00:20:08",1
"17/06/15","00:40",0.0,15.7,73.0,1002.6,310.1,1.1,1.6,336.5,0.00,10.9,19.6,"00:34:56",1
"17/06/15","00:50",0.0,15.5,73.3,1002.2,312.8,1.1,1.7,337.5,0.00,10.8,19.7,"00:40:08",1
"17/06/15","01:00",0.0,15.4,72.9,1002.4,275.2,1.1,1.7,269.0,0.00,10.6,19.5,"00:51:36",1
"17/06/15","01:10",0.0,15.4,72.8,1002.4,305.4,1.5,2.7,334.2,0.00,10.6,19.5,"01:09:28",1
"17/06/15","01:20",0.0,15.5,72.3,1002.2,313.9,1.5,2.8,329.5,0.00,10.6,19.6,"01:10:08",1
"17/06/15","01:30",0.0,15.4,71.8,1002.4,279.5,1.0,2.7,325.8,0.00,10.4,19.3,"01:25:28",1
"17/06/15","01:40",0.0,15.4,72.1,1002.2,277.7,1.1,1.6,272.4,0.00,10.4,19.3,"01:33:52",1
"17/06/15","01:50",0.0,15.3,74.3,1001.9,299.2,1.1,1.6,305.0,0.00,10.8,19.0,"01:45:36",1
"17/06/15","02:00",0.0,15.0,76.8,1001.9,341.7,0.8,1.8,324.2,0.00,11.0,19.0,"01:50:24",1
"17/06/15","02:10",0.0,14.5,78.2,1001.9,301.2,1.1,1.4,263.2,0.00,10.8,19.1,"02:03:04",1
"17/06/15","02:20",0.0,14.2,79.4,1002.2,296.3,0.7,1.4,327.0,0.00,10.7,19.1,"02:10:40",1
"17/06/15","02:30",0.0,13.9,79.6,1002.2,276.0,0.6,1.1,281.4,0.00,10.5,18.8,"02:27:54",1
"17/06/15","02:40",0.0,14.1,80.7,1002.4,306.3,1.2,1.8,316.6,0.00,10.9,18.8,"02:38:04",1
"17/06/15","02:50",0.0,14.1,81.4,1002.4,318.0,1.2,1.6,310.0,0.00,11.0,18.7,"02:40:40",1
"17/06/15","03:00",0.0,13.8,81.9,1002.2,289.7,0.7,1.2,275.8,0.00,10.8,18.7,"02:51:12",1
"17/06/15","03:10",0.0,13.4,82.6,1002.4,301.7,1.2,2.1,323.3,0.00,10.5,18.7,"03:08:30",1
"17/06/15","03:20",0.0,13.7,82.0,1002.2,284.1,1.1,1.7,306.8,0.00,10.7,18.6,"03:12:24",1
"17/06/15","03:30",0.0,13.9,80.7,1002.4,282.4,1.1,1.4,301.0,0.00,10.7,18.4,"03:28:24",1
"17/06/15","03:40",0.0,14.0,80.9,1002.4,300.4,1.2,1.9,308.3,0.00,10.8,18.5,"03:30:40",1
"17/06/15","03:50",0.0,13.6,81.5,1002.4,294.2,1.0,1.3,316.8,0.00,10.5,18.3,"03:49:52",1
"17/06/15","04:00",0.0,13.2,82.5,1002.6,298.2,1.1,1.6,322.3,0.00,10.3,18.2,"03:50:40",1
"17/06/15","04:10",0.0,13.1,83.0,1002.6,299.5,1.2,1.6,318.9,0.00,10.3,18.3,"04:04:40",1
"17/06/15","04:20",0.0,13.0,83.3,1002.4,297.6,1.1,1.3,323.9,0.00,10.3,18.3,"04:14:24",1
"17/06/15","04:30",0.0,13.2,83.1,1002.4,308.7,1.5,2.4,319.5,0.00,10.4,18.1,"04:28:08",1
"17/06/15","04:40",0.0,13.3,82.8,1002.4,282.4,1.0,1.4,274.2,0.00,10.5,18.1,"04:38:40",1
"17/06/15","04:50",0.0,13.4,82.3,1002.2,288.7,1.1,1.3,299.5,0.00,10.5,18.1,"04:42:24",1
"17/06/15","05:00",0.0,13.4,82.3,1002.4,288.4,1.1,1.4,299.7,0.00,10.5,18.0,"04:58:40",1
"17/06/15","05:10",0.0,13.5,81.9,1003.1,285.0,1.0,1.3,294.8,0.00,10.5,18.1,"05:02:00",1
"17/06/15","05:20",0.0,13.4,83.2,1002.9,320.2,1.3,1.9,318.1,0.00,10.7,17.8,"05:15:44",1
"17/06/15","05:30",0.0,13.6,83.0,1002.6,322.9,1.5,2.4,323.9,0.00,10.8,17.8,"05:22:00",1
"17/06/15","05:40",0.0,13.8,83.3,1002.6,306.9,0.8,1.6,314.9,0.00,11.1,17.8,"05:30:40",1
"17/06/15","05:50",0.0,13.8,83.8,1003.1,295.3,0.3,0.9,311.3,0.00,11.2,17.7,"05:48:32",1
"17/06/15","06:00",0.0,13.9,84.9,1002.9,304.3,1.0,1.4,326.2,0.01,11.4,18.0,"05:58:48",1
"17/06/15","06:10",0.0,14.5,84.1,1002.9,331.3,1.3,1.8,341.6,0.02,11.9,17.8,"06:07:44",1
"17/06/15","06:20",0.0,15.5,82.4,1003.1,318.5,0.7,1.2,321.5,0.03,12.6,17.9,"06:12:32",1
"17/06/15","06:30",0.0,16.6,78.4,1002.9,328.3,0.7,1.2,336.0,0.05,12.9,18.0,"06:26:40",1
"17/06/15","06:40",0.0,17.3,74.5,1003.1,335.7,1.0,1.3,329.6,0.07,12.8,18.3,"06:31:52",1
"17/06/15","06:50",0.0,18.1,70.9,1002.6,323.6,0.8,1.4,338.9,0.08,12.8,18.2,"06:49:44",1
"17/06/15","07:00",0.0,18.6,68.4,1002.9,332.3,0.7,1.3,335.2,0.11,12.7,18.5,"06:51:52",1
"17/06/15","07:10",0.0,19.3,65.7,1003.1,324.5,0.2,0.6,148.7,0.13,12.8,18.4,"07:09:52",1
"17/06/15","07:20",0.0,19.6,64.0,1002.9,330.3,0.6,1.6,354.7,0.15,12.7,18.6,"07:19:52",1
"17/06/15","07:30",0.0,20.2,61.3,1002.6,28.5,0.3,1.2,8.4,0.18,12.6,19.1,"07:20:16",1
"17/06/15","07:40",0.0,20.9,60.6,1002.9,355.2,0.5,1.3,344.3,0.20,13.0,19.1,"07:33:20",1
"17/06/15","07:50",0.0,20.8,58.8,1002.4,2.8,0.8,1.7,359.1,0.23,12.5,19.3,"07:43:52",1
"17/06/15","08:00",0.0,21.8,56.2,1002.4,344.5,0.5,1.3,341.8,0.25,12.7,19.5,"07:52:24",1
"17/06/15","08:10",0.0,22.0,54.7,1002.4,359.3,0.7,1.6,329.1,0.28,12.5,19.8,"08:09:44",1
"17/06/15","08:20",0.0,22.0,53.7,1002.2,4.8,0.8,1.8,3.0,0.30,12.2,19.9,"08:18:32",1
"17/06/15","08:30",0.0,22.4,53.5,1002.2,322.1,1.0,1.8,331.6,0.32,12.5,20.2,"08:22:16",1
"17/06/15","08:40",0.0,23.3,52.6,1001.7,63.0,0.7,2.0,128.2,0.34,13.1,20.2,"08:35:52",1
"17/06/15","08:50",0.0,24.2,51.0,1001.2,160.4,0.5,1.7,124.5,0.37,13.5,20.9,"08:45:36",1
"17/06/15","09:00",0.0,24.0,51.9,1001.2,189.5,0.7,2.1,205.7,0.39,13.6,20.9,"08:52:00",1
"17/06/15","09:10",0.0,24.5,53.4,1000.5,120.5,1.0,2.7,174.9,0.41,14.5,21.3,"09:09:28",1
"17/06/15","09:20",0.0,23.9,54.6,1000.8,183.7,1.6,3.2,197.0,0.43,14.2,21.2,"09:10:16",1
"17/06/15","09:30",0.0,24.6,49.6,1000.5,138.7,1.0,1.9,178.9,0.45,13.4,21.8,"09:20:16",1
"17/06/15","09:40",0.0,24.9,53.6,1001.0,212.3,1.0,2.5,224.9,0.46,14.9,21.9,"09:37:36",1
"17/06/15","09:50",0.0,25.2,49.4,1000.8,166.0,1.0,2.0,175.8,0.48,13.9,22.5,"09:47:52",1
"17/06/15","10:00",0.0,25.3,51.3,1001.0,216.3,1.3,4.1,211.4,0.50,14.6,22.5,"09:56:08",1
"17/06/15","10:10",0.0,25.9,51.5,1000.8,181.8,1.2,2.6,153.2,0.51,15.2,22.8,"10:01:20",1
"17/06/15","10:20",0.0,26.0,48.9,1001.0,170.7,1.3,4.1,201.0,0.53,14.5,23.2,"10:10:02",1
"17/06/15","10:30",0.0,26.0,49.1,1000.5,189.1,2.0,4.0,192.9,0.54,14.5,23.5,"10:21:44",1
"17/06/15","10:40",0.0,26.2,47.3,1000.3,171.5,1.8,4.0,200.6,0.55,14.1,23.9,"10:38:08",1
"17/06/15","10:50",0.0,26.8,48.6,1000.3,181.9,1.7,3.9,155.9,0.56,15.1,24.2,"10:49:20",1
"17/06/15","11:00",0.0,27.2,48.8,1000.3,169.4,1.8,3.9,172.9,0.57,15.5,24.4,"10:53:28",1
"17/06/15","11:10",0.0,27.5,46.3,1000.3,154.2,2.0,4.4,196.7,0.58,15.0,24.8,"11:09:12",1
"17/06/15","11:20",0.0,27.5,46.8,1000.0,189.0,2.2,5.0,231.0,0.59,15.2,24.8,"11:10:02",1
"17/06/15","11:30",0.0,27.7,45.4,1000.0,189.7,2.7,5.5,228.9,0.59,14.9,25.0,"11:20:08",1
"17/06/15","11:40",0.0,27.8,45.7,999.8,164.1,2.0,3.3,203.6,0.60,15.1,25.3,"11:37:52",1
"17/06/15","11:50",0.0,28.5,40.4,1000.0,168.0,1.5,3.5,179.3,0.59,13.8,25.7,"11:48:32",1
"17/06/15","12:00",0.0,28.4,41.6,999.8,141.0,1.7,5.1,192.3,0.59,14.2,25.8,"11:59:20",1
"17/06/15","12:10",0.0,28.1,42.4,999.8,164.4,1.7,3.5,194.7,0.46,14.2,25.9,"12:01:20",1
"17/06/15","12:20",0.0,28.8,41.2,999.8,254.9,1.2,3.3,220.2,0.61,14.4,26.1,"12:10:48",1
"17/06/15","12:30",0.0,29.4,39.5,1000.3,135.0,1.1,2.7,169.2,0.61,14.2,26.5,"12:23:04",1
"17/06/15","12:40",0.0,29.9,38.7,999.6,158.9,1.2,2.9,221.4,0.61,14.4,26.6,"12:38:48",1
"17/06/15","12:50",0.0,29.5,34.0,999.8,193.3,1.7,3.7,200.7,0.61,12.0,27.0,"12:40:08",1
"17/06/15","13:00",0.0,30.2,37.9,999.8,178.2,1.6,3.6,209.9,0.63,14.3,26.9,"12:59:52",1
"17/06/15","13:10",0.0,30.2,36.2,1000.0,185.7,1.6,4.0,222.8,0.61,13.6,26.7,"13:00:56",1
"17/06/15","13:20",0.0,30.5,33.8,1000.5,317.4,1.1,3.2,340.3,0.62,12.8,26.6,"13:16:16",1
"17/06/15","13:30",0.0,30.5,33.1,1000.3,309.4,1.6,3.7,347.3,0.61,12.5,26.2,"13:22:00",1
"17/06/15","13:40",0.0,30.8,31.2,1000.0,175.3,1.5,4.5,345.0,0.61,11.9,26.3,"13:39:20",1
"17/06/15","13:50",0.0,30.9,30.7,1000.0,336.4,1.7,4.8,320.8,0.61,11.7,26.4,"13:40:08",1
"17/06/15","14:00",0.0,31.5,33.1,1000.0,320.3,1.2,3.3,348.4,0.62,13.4,26.2,"13:59:36",1
"17/06/15","14:10",0.0,31.4,31.3,1000.0,266.1,1.2,4.0,223.7,0.61,12.4,26.2,"14:02:40",1
"17/06/15","14:20",0.0,30.0,40.4,999.6,216.7,2.2,5.4,229.0,0.50,15.1,26.5,"14:19:36",1
"17/06/15","14:30",0.0,30.0,42.1,999.1,181.8,3.5,6.3,186.2,0.55,15.8,26.4,"14:20:16",1
"17/06/15","14:40",0.0,30.8,34.0,999.1,224.8,2.0,5.9,226.4,0.54,13.2,26.7,"14:31:28",1
"17/06/15","14:50",0.0,31.2,35.1,999.3,287.1,1.6,4.9,229.7,0.56,14.0,26.7,"14:47:52",1
"17/06/15","15:00",0.0,30.7,38.5,999.1,263.6,1.6,4.9,219.6,0.52,15.0,27.0,"14:59:04",1
"17/06/15","15:10",0.0,30.6,38.3,999.3,257.5,1.7,3.9,238.1,0.50,14.8,26.9,"15:09:44",1
"17/06/15","15:20",0.0,30.1,38.2,999.1,249.3,2.0,4.3,224.3,0.48,14.4,27.0,"15:18:32",1
"17/06/15","15:30",0.0,30.0,38.6,998.9,238.8,2.2,5.4,222.9,0.43,14.4,27.0,"15:23:28",1
"17/06/15","15:40",0.0,30.0,39.1,998.6,247.9,1.8,5.6,231.7,0.39,14.6,26.9,"15:35:12",1
"17/06/15","15:50",0.0,29.7,38.1,998.9,220.7,1.7,3.9,228.7,0.38,14.0,26.7,"15:49:52",1
"17/06/15","16:00",0.0,30.0,36.7,998.9,247.8,1.6,4.0,227.5,0.36,13.6,26.8,"15:50:56",1
"17/06/15","16:10",0.0,30.3,36.8,998.9,246.6,1.5,4.5,198.2,0.36,14.0,26.8,"16:00:32",1
"17/06/15","16:20",0.0,29.9,37.0,998.9,213.3,2.1,3.6,231.4,0.34,13.7,26.9,"16:15:20",1
"17/06/15","16:30",0.0,30.2,36.6,998.4,191.1,2.2,3.4,236.4,0.29,13.8,26.8,"16:23:12",1
"17/06/15","16:40",0.0,30.4,36.7,998.6,219.8,1.8,3.7,184.6,0.27,14.0,26.6,"16:32:56",1
"17/06/15","16:50",0.0,30.1,34.4,998.4,249.6,1.5,4.0,231.6,0.26,12.7,26.6,"16:46:40",1
"17/06/15","17:00",0.0,30.4,34.9,998.6,227.1,1.1,2.7,220.5,0.18,13.2,26.8,"16:50:08",1
"17/06/15","17:10",0.0,30.3,34.1,998.6,231.9,1.3,3.2,216.1,0.06,12.8,26.7,"17:01:20",1
"17/06/15","17:20",0.0,30.3,33.4,998.4,268.1,0.8,2.1,238.1,0.05,12.5,26.6,"17:19:20",1
"17/06/15","17:30",0.0,29.7,34.3,998.6,260.7,1.2,2.7,236.2,0.05,12.3,26.5,"17:25:28",1
"17/06/15","17:40",0.0,29.3,33.7,998.4,234.9,1.5,2.9,224.5,0.04,11.7,26.2,"17:33:52",1
"17/06/15","17:50",0.0,29.1,33.6,998.4,228.8,1.5,3.2,215.7,0.04,11.5,26.1,"17:43:12",1
"17/06/15","18:00",0.0,29.0,33.9,998.2,230.7,1.5,3.3,223.4,0.04,11.6,26.0,"17:51:12",1
"17/06/15","18:10",0.0,28.6,32.9,998.4,248.8,1.3,2.8,198.5,0.03,10.8,25.9,"18:02:08",1
"17/06/15","18:20",0.0,28.2,32.7,998.2,237.3,1.5,3.3,287.3,0.02,10.3,25.9,"18:18:40",1
"17/06/15","18:30",0.0,27.7,33.8,998.2,234.9,1.7,2.9,221.3,0.02,10.4,25.9,"18:28:08",1
"17/06/15","18:40",0.0,27.3,34.1,998.2,242.6,1.6,3.9,223.1,0.01,10.2,25.4,"18:31:12",1
"17/06/15","18:50",0.0,27.0,35.3,998.6,254.4,1.1,2.1,229.2,0.01,10.4,25.4,"18:42:16",1
"17/06/15","19:00",0.0,26.7,35.4,999.1,252.9,1.2,2.6,228.3,0.00,10.2,25.1,"18:52:48",1
"17/06/15","19:10",0.0,26.2,44.0,999.1,283.0,0.5,1.6,346.2,0.00,13.0,25.0,"19:01:44",1
"17/06/15","19:20",0.0,25.2,44.9,999.6,337.1,1.3,2.2,336.3,0.00,12.4,24.9,"19:16:40",1
"17/06/15","19:30",0.0,24.4,46.7,999.6,317.6,1.3,2.2,323.5,0.00,12.3,24.7,"19:20:56",1
"17/06/15","19:40",0.0,23.9,48.7,1000.0,318.9,2.0,3.3,318.9,0.00,12.5,24.6,"19:35:44",1
"17/06/15","19:50",0.0,23.6,48.7,1000.3,333.8,2.6,3.7,333.3,0.00,12.2,24.5,"19:47:36",1
"17/06/15","20:00",0.0,23.5,48.0,1000.5,296.4,2.1,4.2,330.3,0.00,11.9,24.3,"19:51:04",1
"17/06/15","20:10",0.0,23.0,50.1,1000.8,285.2,1.5,3.1,315.1,0.00,12.1,24.0,"20:09:32",1
"17/06/15","20:20",0.0,23.1,50.7,1000.8,299.6,2.2,4.4,346.7,0.00,12.4,24.1,"20:10:56",1
"17/06/15","20:30",0.0,22.7,51.9,1000.8,306.4,1.7,3.2,332.6,0.00,12.4,24.0,"20:20:02",1
"17/06/15","20:40",0.0,22.7,52.1,1001.0,332.1,2.5,4.3,347.6,0.00,12.4,23.7,"20:34:08",1
"17/06/15","20:50",0.0,22.7,52.0,1001.7,301.9,1.7,3.6,301.2,0.00,12.4,23.5,"20:42:32",1
"17/06/15","21:00",0.0,22.5,53.2,1001.9,296.3,1.3,3.2,321.9,0.00,12.5,23.5,"20:51:36",1
"17/06/15","21:10",0.0,22.1,54.8,1001.7,296.0,1.0,1.9,329.9,0.00,12.6,23.2,"21:00:02",1
"17/06/15","21:20",0.0,21.8,55.7,1001.7,316.4,1.6,2.2,324.0,0.00,12.6,23.1,"21:11:28",1
"17/06/15","21:30",0.0,21.6,55.8,1001.9,326.9,2.0,3.1,328.0,0.00,12.4,23.1,"21:22:00",1
"17/06/15","21:40",0.0,21.4,56.0,1001.9,299.6,1.3,2.2,323.0,0.00,12.3,22.9,"21:34:16",1
"17/06/15","21:50",0.0,21.2,57.4,1002.2,309.4,1.3,1.9,313.8,0.00,12.5,22.8,"21:41:44",1
"17/06/15","22:00",0.0,21.1,58.4,1002.4,325.3,2.2,3.5,324.6,0.00,12.7,22.8,"21:55:04",1
"17/06/15","22:10",0.0,20.8,60.0,1002.2,323.4,2.2,4.0,336.1,0.00,12.8,22.7,"22:06:48",1
"17/06/15","22:20",0.0,20.5,61.3,1001.9,314.7,1.3,2.6,339.7,0.00,12.8,22.5,"22:16:24",1
"17/06/15","22:30",0.0,20.6,60.9,1002.6,322.7,3.0,4.9,330.0,0.00,12.8,22.4,"22:23:12",1
"17/06/15","22:40",0.0,20.8,60.5,1003.1,328.5,3.2,4.4,337.7,0.00,12.9,22.3,"22:36:40",1
"17/06/15","22:50",0.0,21.0,59.8,1002.6,319.2,2.7,4.4,338.0,0.00,12.9,22.2,"22:40:40",1
"17/06/15","23:00",0.0,20.8,61.1,1002.6,314.7,1.6,2.1,329.6,0.00,13.1,22.2,"22:50:56",1
"17/06/15","23:10",0.0,20.4,62.7,1002.6,331.6,2.3,3.5,333.3,0.00,13.1,22.2,"23:01:52",1
"17/06/15","23:20",0.0,20.5,61.7,1002.6,336.8,2.1,3.6,339.8,0.00,12.9,22.0,"23:12:40",1
"17/06/15","23:30",0.0,20.6,62.4,1002.6,342.8,1.3,2.7,340.6,0.00,13.2,21.9,"23:29:12",1
"17/06/15","23:40",0.0,20.4,63.1,1002.9,332.0,1.5,2.2,345.1,0.00,13.2,22.1,"23:34:16",1
"17/06/15","23:50",0.0,20.2,63.4,1002.4,331.8,1.2,2.4,336.0,0.00,13.1,21.8,"23:44:48",1
"17/06/15","24:00",0.0,20.2,63.8,1002.6,325.0,1.8,3.3,324.2,0.00,13.2,21.7,"23:57:52",1
